Volver al catálogo

NSS 6

ActivoComunicacionesGEO
NORAD 27603·PAYLOAD·🇱🇺 Luxembourg

Lanzado Dec 17, 2002 desde Guiana Space Centre

Loading…

TLE

ActualizadoSource: Space-Track

Época: Sep 14, 2026, 13:25 UTC

1 27603U 02057A   26257.55923167  .00000059  00000-0  00000-0 0  9996
2 27603   5.6035  73.2757 0007791 219.2000 123.0992  0.99124171 86800

Sigue NSS 6 en tiempo real con AllMySat

Download on the App Store